Starlink 4331

operational
NORAD ID: 53046 Int'l Des: 2022-077 Owner: SPXS Country: US Constellation: starlink
LEOCIRCULARRETROGRADESSO

About Starlink 4331

Description loading...

Live Position

Loading 3D Globe...

Upcoming Passes

Altitude History

Altitude vs Time

uPlot chart will show altitude changes over time

Two-Line Element Set

1 53046U 22077D 26033.46731504 .00000675 00000-0 50953-4 0 9994
2 53046 97.6029 216.5973 0001543 90.3040 269.8363 15.05653715195690
Epoch: Feb 2, 2026 • Age: 19 hours

Current Status

Altitude 551.8 km
Velocity 7.59 km/s
Sub-Earth Point 20.93°N, 15.7°W
Launch Date Jul 11, 2022
Age 3.5 years
Type internet

Technical Details

Classification Payload
Mass 297.00 kg
Dry Mass 275.00 kg
Total Mass 297.00 kg
Length 0.20 m
Diameter 2.80 m
Span 9.00 m
Shape Box + pan
Manufacturer SPXS
Bus Type Starlink
Phase Status In Orbit
Owner/State SPXS/US

Large Constellations

Loading constellations...